SQ6MTB Weather Reports


Display with metric or nautical units.
time (UTC)temp
F
wind
direction
speed
MPH
gust
MPH
rain 1hr
in
rain 24hr
in
rain mn
in
humidity
%
barometer
mb
20260905034505 58 266 7.0 16.0 0.00 0.20 0.00 89 1013.8
20260905034015 58 238 9.0 17.0 0.00 0.20 0.00 88 1013.7
20260905033521 58 247 7.0 17.0 0.00 0.20 0.00 89 1013.7
20260905033030 58 263 9.0 17.0 0.00 0.20 0.00 88 1013.7
20260905032540 58 260 7.0 15.0 0.00 0.20 0.00 88 1013.6
20260905032047 58 270 9.0 15.0 0.00 0.20 0.00 88 1013.6
20260905031536 58 249 9.0 18.0 0.00 0.20 0.00 88 1013.6
20260905031033 58 296 9.0 18.0 0.00 0.20 0.00 88 1013.4
20260905030541 58 278 9.0 18.0 0.00 0.20 0.00 88 1013.3
20260905030024 58 242 8.0 15.0 0.00 0.20 0.00 89 1013.3
20260905025531 58 254 7.0 17.0 0.00 0.20 0.00 89 1013.2
20260905025044 58 280 9.0 17.0 0.00 0.20 0.00 89 1013.2
20260905024548 58 286 10.0 17.0 0.00 0.20 0.00 89 1013.2
20260905024030 58 275 8.0 17.0 0.00 0.20 0.00 89 1013.1
20260905023518 58 252 9.0 16.0 0.00 0.20 0.00 90 1013.2
20260905023021 58 254 10.0 16.0 0.00 0.20 0.00 90 1013.1
20260905022531 58 277 6.0 11.0 0.00 0.20 0.00 90 1013.0
20260905022014 58 274 4.0 13.0 0.00 0.20 0.00 90 1013.0
20260905021552 59 254 8.0 13.0 0.00 0.20 0.00 90 1013.0
20260905021059 59 251 8.0 12.0 0.00 0.20 0.00 90 1012.8
20260905020507 59 299 7.0 12.0 0.00 0.20 0.00 90 1012.7
20260905020050 59 285 3.0 13.0 0.00 0.20 0.00 90 1012.6
20260905015524 59 261 6.0 16.0 0.00 0.20 0.00 90 1012.6
20260905015033 59 279 7.0 16.0 0.00 0.20 0.00 90 1012.7
20260905014540 59 243 7.0 17.0 0.00 0.20 0.00 90 1012.6
20260905014024 59 245 8.0 18.0 0.00 0.20 0.00 90 1012.5
20260905013506 59 275 10.0 16.0 0.00 0.20 0.00 91 1012.5
20260905013011 59 236 8.0 17.0 0.00 0.20 0.00 91 1012.6
20260905012520 59 243 11.0 17.0 0.00 0.20 0.00 91 1012.7
20260905012100 59 262 8.0 15.0 0.00 0.20 0.00 91 1012.4
20260905012002 59 249 8.0 15.0 0.00 0.20 0.00 91 1012.4
20260905011509 59 246 7.0 14.0 0.00 0.20 0.00 91 1012.2
20260905011016 59 269 7.0 14.0 0.00 0.20 0.00 90 1012.3
20260905010522 59 282 8.0 17.0 0.00 0.20 0.00 90 1012.3
20260905010004 59 259 9.0 17.0 0.00 0.20 0.00 90 1012.3
20260905005512 59 271 9.0 16.0 0.00 0.20 0.00 90 1012.4
20260905005021 59 212 6.0 20.0 0.00 0.20 0.00 91 1012.5
20260905004533 60 257 10.0 20.0 0.00 0.20 0.00 91 1012.2
20260905004008 60 278 11.0 18.0 0.00 0.20 0.00 91 1012.6
20260905003547 60 202 11.0 18.0 0.00 0.20 0.00 91 1012.0
20260905003059 60 263 9.0 18.0 0.00 0.20 0.00 92 1012.2
20260905002508 60 248 10.0 18.0 0.00 0.20 0.00 92 1012.0
20260905002044 60 267 10.0 18.0 0.00 0.20 0.00 92 1012.3
20260905001526 60 242 9.0 18.0 0.00 0.20 0.00 92 1012.1
20260905001031 60 266 10.0 18.0 0.00 0.20 0.00 92 1012.3
20260905000540 60 254 7.0 18.0 0.00 0.20 0.00 92 1012.0
20260905000022 60 254 9.0 15.0 0.00 0.20 0.00 92 1012.2
20260904235529 60 227 10.0 18.0 0.00 0.20 0.00 92 1012.0
20260904235044 60 305 10.0 18.0 0.00 0.20 0.00 92 1011.8
20260904234545 60 277 9.0 15.0 0.00 0.20 0.00 93 1011.6
20260904234027 60 275 9.0 16.0 0.00 0.20 0.00 93 1011.6
20260904233509 60 263 10.0 16.0 0.00 0.20 0.00 93 1011.8
20260904233036 60 251 6.0 14.0 0.00 0.20 0.00 93 1011.5
20260904232530 60 273 7.0 17.0 0.00 0.20 0.00 93 1011.5
20260904232034 60 279 6.0 18.0 0.00 0.20 0.00 93 1011.7
20260904231520 60 234 12.0 18.0 0.00 0.20 0.00 93 1011.9
20260904231023 60 261 9.0 17.0 0.00 0.20 0.00 93 1011.9
20260904230533 60 253 7.0 18.0 0.00 0.20 0.00 93 1011.5
20260904230046 60 269 9.0 18.0 0.00 0.20 0.00 93 1011.5
20260904225548 60 280 8.0 19.0 0.01 0.20 0.00 93 1011.3
20260904225034 60 270 10.0 19.0 0.01 0.20 0.00 93 1011.5
20260904224542 60 200 11.0 19.0 0.02 0.20 0.00 93 1011.6
20260904224051 60 246 7.0 14.0 0.02 0.20 0.00 93 1011.5
20260904223559 60 255 7.0 17.0 0.02 0.20 0.00 93 1011.4
20260904223008 60 269 6.0 17.0 0.02 0.20 0.00 93 1011.2
20260904222547 60 240 9.0 15.0 0.02 0.20 0.00 93 1011.2
20260904222055 60 260 7.0 17.0 0.02 0.20 0.00 93 1011.2
20260904221557 60 223 8.0 17.0 0.03 0.20 0.00 93 1011.2
20260904221505 60 281 8.0 17.0 0.03 0.20 0.00 93 1011.2
20260904221043 60 268 9.0 17.0 0.04 0.20 0.00 93 1011.1
20260904220552 60 211 7.0 16.0 0.04 0.20 0.00 93 1010.5
20260904220107 60 244 10.0 15.0 0.05 0.20 0.20 93 1010.6
20260904215534 60 190 7.0 17.0 0.05 0.20 0.20 93 1010.2
20260904215014 60 263 8.0 17.0 0.05 0.20 0.20 92 1010.8
20260904214527 60 281 7.0 16.0 0.06 0.19 0.19 92 1010.6
20260904214035 60 279 9.0 16.0 0.06 0.18 0.18 92 1010.9
20260904213518 60 234 10.0 16.0 0.07 0.18 0.18 92 1010.6
20260904213052 60 275 8.0 21.0 0.08 0.18 0.18 92 1010.8
20260904212600 60 255 7.0 21.0 0.08 0.18 0.18 92 1010.3
20260904212006 60 241 7.0 17.0 0.09 0.18 0.18 92 1010.3
20260904211543 60 283 7.0 17.0 0.08 0.17 0.17 92 1010.0
20260904211026 59 220 8.0 16.0 0.07 0.17 0.17 92 1010.0
20260904210533 60 242 8.0 14.0 0.08 0.17 0.17 92 1010.1
20260904210044 60 236 8.0 13.0 0.08 0.16 0.16 92 1010.1
20260904205548 60 273 6.0 16.0 0.08 0.15 0.15 92 1010.3
20260904205033 60 273 10.0 16.0 0.09 0.15 0.15 92 1010.2
20260904204514 60 271 8.0 14.0 0.09 0.13 0.13 91 1010.0
20260904204048 60 200 8.0 13.0 0.08 0.13 0.13 91 1010.0
20260904203553 60 259 5.0 16.0 0.07 0.11 0.11 91 1010.3
20260904203004 60 241 9.0 14.0 0.07 0.10 0.10 91 1010.1
20260904202510 60 284 6.0 16.0 0.06 0.09 0.10 91 1010.2
20260904202019 60 263 10.0 16.0 0.06 0.09 0.09 91 1009.9
20260904201534 60 238 5.0 15.0 0.07 0.09 0.09 90 1009.5
20260904201009 60 257 6.0 15.0 0.07 0.09 0.09 90 1009.7
20260904200547 60 257 7.0 17.0 0.06 0.09 0.09 90 1010.0
20260904200057 60 290 7.0 17.0 0.06 0.08 0.08 90 1009.8
20260904195508 60 279 5.0 13.0 0.06 0.07 0.07 89 1009.9
20260904195043 60 277 7.0 15.0 0.04 0.06 0.06 89 1009.6
20260904194525 60 251 8.0 15.0 0.03 0.05 0.05 88 1009.7
20260904194033 60 228 3.0 14.0 0.03 0.05 0.05 88 1010.0
20260904193545 61 284 7.0 14.0 0.02 0.04 0.04 87 1010.3
20260904193049 61 228 8.0 15.0 0.02 0.03 0.03 86 1010.3
20260904192551 61 252 8.0 15.0 0.02 0.03 0.03 85 1010.0
20260904192100 62 267 8.0 15.0 0.02 0.03 0.03 83 1010.1
20260904192003 62 284 5.0 15.0 0.02 0.03 0.03 83 1010.3
20260904191507 62 217 5.0 21.0 0.01 0.02 0.02 82 1010.3
20260904191017 63 246 6.0 19.0 0.01 0.02 0.02 80 1010.3
20260904190522 64 220 8.0 19.0 0.01 0.02 0.02 78 1010.5
20260904190054 64 246 6.0 16.0 0.00 0.02 0.02 76 1010.6
20260904185541 65 253 6.0 16.0 0.00 0.02 0.02 75 1010.6
20260904185053 65 317 1.0 26.0 0.00 0.02 0.02 76 1010.4
20260904184553 65 277 5.0 21.0 0.00 0.02 0.02 75 1010.5
20260904184035 65 325 12.0 28.0 0.00 0.02 0.02 76 1010.4
20260904183517 65 271 5.0 17.0 0.00 0.02 0.02 77 1009.9
20260904183025 65 249 9.0 21.0 0.00 0.02 0.02 77 1009.7
20260904182600 65 269 9.0 19.0 0.00 0.02 0.02 76 1009.7
20260904182507 65 269 9.0 19.0 0.00 0.02 0.02 76 1009.7
20260904182046 65 246 7.0 16.0 0.00 0.02 0.02 77 1009.4
20260904181556 65 276 9.0 19.0 0.00 0.02 0.02 77 1009.3
20260904181005 65 257 11.0 19.0 0.00 0.02 0.02 77 1009.3
20260904180514 65 272 11.0 19.0 0.00 0.02 0.02 78 1009.4
20260904180100 65 257 10.0 24.0 0.00 0.02 0.02 78 1009.3
20260904175502 65 261 9.0 24.0 0.00 0.02 0.02 79 1009.0
20260904175008 65 274 10.0 18.0 0.00 0.02 0.02 79 1008.8
20260904174524 65 264 7.0 18.0 0.02 0.02 0.02 80 1008.7
20260904174022 65 266 10.0 17.0 0.02 0.02 0.02 80 1008.6
20260904173558 66 247 11.0 17.0 0.02 0.02 0.02 79 1008.5
20260904173500 66 282 11.0 17.0 0.02 0.02 0.02 79 1008.5
20260904173108 66 51 10.0 18.0 0.02 0.02 0.02 80 1008.4
20260904172552 66 320 11.0 18.0 0.02 0.02 0.02 81 1008.3
20260904172057 66 326 8.0 18.0 0.02 0.02 0.02 81 1008.3
20260904171507 67 344 7.0 20.0 0.02 0.02 0.02 79 1008.2
20260904171014 67 213 8.0 20.0 0.02 0.02 0.02 78 1008.1
20260904170554 68 292 8.0 20.0 0.02 0.02 0.02 79 1008.1
20260904170033 68 306 9.0 20.0 0.02 0.02 0.02 79 1008.1
20260904165548 70 271 7.0 20.0 0.02 0.02 0.02 78 1007.7
20260904165051 72 243 10.0 47.0 0.02 0.02 0.02 78 1007.8
20260904164556 76 292 22.0 47.0 0.00 0.00 0.01 71 1007.2
20260904164504 76 252 22.0 47.0 0.00 0.00 0.00 70 1007.1
20260904164032 77 283 6.0 20.0 0.00 0.00 0.00 66 1006.0
20260904163519 77 202 7.0 20.0 0.00 0.00 0.00 64 1005.8
20260904163054 77 281 4.0 18.0 0.00 0.00 0.00 64 1005.8
20260904162506 77 248 7.0 23.0 0.00 0.00 0.00 64 1006.1
20260904162012 77 288 4.0 18.0 0.00 0.00 0.00 64 1006.2
20260904161519 77 168 8.0 20.0 0.00 0.00 0.00 64 1006.2
20260904161059 77 238 11.0 20.0 0.00 0.00 0.00 64 1006.2
20260904161001 77 239 11.0 20.0 0.00 0.00 0.00 64 1006.2
20260904160510 77 190 9.0 16.0 0.00 0.00 0.00 64 1006.3
20260904160013 77 245 7.0 16.0 0.00 0.00 0.00 64 1006.2
20260904155520 77 249 8.0 16.0 0.00 0.00 0.00 64 1006.2
20260904155025 77 188 6.0 17.0 0.00 0.00 0.00 64 1006.3
20260904154532 77 248 6.0 18.0 0.00 0.00 0.00 64 1006.3
20260904154044 77 249 10.0 21.0 0.00 0.00 0.00 63 1006.6
20260904153551 77 224 11.0 21.0 0.00 0.00 0.00 63 1006.4
20260904153106 78 194 9.0 20.0 0.00 0.00 0.00 63 1006.5
20260904152508 78 275 9.0 18.0 0.00 0.00 0.00 64 1006.5
20260904152045 78 245 7.0 20.0 0.00 0.00 0.00 63 1006.5
20260904151527 78 221 8.0 19.0 0.00 0.00 0.00 63 1006.4
20260904151034 77 271 8.0 19.0 0.00 0.00 0.00 64 1006.5
20260904150542 77 249 8.0 22.0 0.00 0.00 0.00 64 1006.4
20260904150035 77 276 9.0 25.0 0.00 0.00 0.00 64 1006.7
20260904145559 77 154 6.0 25.0 0.00 0.00 0.00 64 1006.7
20260904145008 77 248 10.0 27.0 0.00 0.00 0.00 64 1006.8
20260904144517 77 251 8.0 23.0 0.00 0.00 0.00 64 1006.9
20260904144023 77 246 12.0 29.0 0.00 0.00 0.00 64 1007.0
20260904143530 77 189 12.0 29.0 0.00 0.00 0.00 64 1007.0
20260904143038 77 288 13.0 23.0 0.00 0.00 0.00 64 1007.1
20260904142520 77 241 9.0 23.0 0.00 0.00 0.00 64 1007.1
20260904142101 77 238 9.0 21.0 0.00 0.00 0.00 64 1007.1
20260904142004 77 309 10.0 21.0 0.00 0.00 0.00 64 1007.2
20260904141508 77 248 8.0 25.0 0.00 0.00 0.00 64 1007.3
20260904141015 77 159 11.0 25.0 0.00 0.00 0.00 64 1007.3
20260904140522 77 235 7.0 25.0 0.00 0.00 0.00 64 1007.4
20260904140059 77 267 10.0 25.0 0.00 0.00 0.00 64 1007.5
20260904135546 77 194 10.0 23.0 0.00 0.00 0.00 64 1007.6
20260904135053 77 187 11.0 23.0 0.00 0.00 0.00 64 1007.5
20260904134606 77 241 11.0 19.0 0.00 0.00 0.00 65 1007.5
20260904134503 77 257 7.0 19.0 0.00 0.00 0.00 64 1007.5
20260904134010 77 247 10.0 24.0 0.00 0.00 0.00 64 1007.8
20260904133546 77 201 11.0 25.0 0.00 0.00 0.00 65 1007.8
20260904133031 76 279 13.0 25.0 0.00 0.00 0.00 65 1008.0
20260904132537 76 183 9.0 25.0 0.00 0.00 0.00 66 1008.1
20260904132049 76 225 12.0 25.0 0.00 0.00 0.00 66 1008.1
20260904131552 76 185 4.0 22.0 0.00 0.00 0.00 66 1008.4
20260904131040 76 151 4.0 17.0 0.00 0.00 0.00 66 1008.2
20260904130545 76 254 6.0 17.0 0.00 0.00 0.00 66 1008.4
20260904130048 76 200 6.0 17.0 0.00 0.00 0.00 66 1008.5
20260904125533 76 279 7.0 19.0 0.00 0.00 0.00 66 1008.6
20260904125013 76 226 8.0 20.0 0.00 0.00 0.00 65 1008.7
20260904124521 76 237 8.0 21.0 0.00 0.00 0.00 65 1008.8
20260904124027 76 266 9.0 21.0 0.00 0.00 0.00 65 1008.9
20260904123510 76 211 9.0 24.0 0.00 0.00 0.00 64 1008.9
20260904123050 76 241 11.0 24.0 0.00 0.00 0.00 64 1008.9
20260904122600 76 237 10.0 24.0 0.00 0.00 0.00 65 1008.9
20260904122502 76 237 11.0 26.0 0.00 0.00 0.00 65 1008.9
20260904122009 76 263 8.0 26.0 0.00 0.00 0.00 65 1009.1
20260904121548 76 296 15.0 26.0 0.00 0.00 0.00 64 1009.2
20260904121100 76 213 15.0 26.0 0.00 0.00 0.00 64 1009.4
20260904120506 77 277 11.0 23.0 0.00 0.00 0.00 64 1009.4
20260904120017 76 267 8.0 20.0 0.00 0.00 0.00 66 1009.6
20260904115522 76 220 8.0 23.0 0.00 0.00 0.00 65 1009.7
20260904115032 76 234 8.0 23.0 0.00 0.00 0.00 67 1009.6
20260904114524 76 213 7.0 20.0 0.00 0.00 0.00 67 1009.6
20260904114022 75 213 9.0 17.0 0.00 0.00 0.00 67 1009.7
20260904113530 75 245 6.0 21.0 0.00 0.00 0.00 68 1009.7
20260904113046 74 233 9.0 22.0 0.00 0.00 0.00 69 1009.9
20260904112521 74 242 11.0 22.0 0.00 0.00 0.00 68 1010.0
20260904112030 74 232 10.0 19.0 0.00 0.00 0.00 69 1010.2
20260904111536 74 281 8.0 25.0 0.00 0.00 0.00 70 1010.4
20260904111044 74 254 12.0 25.0 0.00 0.00 0.00 70 1010.4
20260904110526 74 226 7.0 19.0 0.00 0.00 0.00 71 1010.4
20260904110041 73 212 11.0 20.0 0.00 0.00 0.00 72 1010.4
20260904105546 73 141 3.0 16.0 0.00 0.00 0.00 74 1010.4
20260904105050 72 184 4.0 16.0 0.00 0.00 0.00 74 1010.5
20260904104534 72 252 9.0 20.0 0.00 0.00 0.00 74 1010.6
20260904104018 72 274 12.0 21.0 0.00 0.00 0.00 74 1010.8
20260904103526 72 246 11.0 21.0 0.00 0.00 0.00 74 1010.7
20260904103037 72 285 5.0 15.0 0.00 0.00 0.00 75 1010.9
20260904102545 71 232 6.0 19.0 0.00 0.00 0.00 75 1010.7
20260904102045 71 250 6.0 17.0 0.00 0.00 0.00 75 1011.0
20260904101528 71 214 5.0 17.0 0.00 0.00 0.00 76 1011.0
20260904101010 71 238 4.0 18.0 0.00 0.00 0.00 76 1011.1
20260904100523 71 223 9.0 17.0 0.00 0.00 0.00 76 1011.3
20260904100030 71 276 5.0 17.0 0.00 0.00 0.00 76 1011.3
20260904095515 72 175 8.0 17.0 0.00 0.00 0.00 75 1011.3
20260904095051 72 202 5.0 17.0 0.00 0.00 0.00 75 1011.5
20260904094612 72 255 9.0 18.0 0.00 0.00 0.00 74 1011.6
20260904094506 73 246 8.0 18.0 0.00 0.00 0.00 74 1011.6
20260904094010 72 236 5.0 18.0 0.00 0.00 0.00 75 1011.5
20260904093516 72 211 6.0 16.0 0.00 0.00 0.00 76 1011.7
20260904093057 72 221 4.0 18.0 0.00 0.00 0.00 77 1011.8
20260904092538 71 277 5.0 19.0 0.00 0.00 0.00 77 1011.9
20260904092049 71 257 6.0 19.0 0.00 0.00 0.00 78 1012.0
20260904091554 70 209 5.0 16.0 0.00 0.00 0.00 79 1012.1
20260904091056 69 244 3.0 12.0 0.00 0.00 0.00 82 1012.1
20260904091003 69 236 3.0 12.0 0.00 0.00 0.00 82 1012.1
20260904090542 69 252 2.0 12.0 0.00 0.00 0.00 81 1012.2
20260904090019 69 230 3.0 15.0 0.00 0.00 0.00 81 1012.3
20260904085528 69 224 3.0 14.0 0.00 0.00 0.00 81 1012.4
20260904085038 68 226 5.0 14.0 0.00 0.00 0.00 80 1012.4
20260904084516 69 231 3.0 17.0 0.00 0.00 0.00 79 1012.5
20260904084056 69 254 7.0 17.0 0.00 0.00 0.00 78 1012.8
20260904083503 69 257 7.0 15.0 0.00 0.00 0.00 77 1012.8
20260904083012 69 231 5.0 20.0 0.00 0.00 0.00 77 1012.9
20260904082518 69 268 7.0 20.0 0.00 0.00 0.00 77 1013.0
20260904082026 69 203 5.0 17.0 0.00 0.00 0.00 77 1013.0
20260904081534 69 252 6.0 17.0 0.00 0.00 0.00 77 1013.0
20260904081015 69 144 4.0 15.0 0.00 0.00 0.00 78 1012.8
20260904080555 69 171 4.0 15.0 0.00 0.00 0.00 77 1012.8
20260904080006 69 242 6.0 15.0 0.00 0.00 0.00 78 1013.0
20260904075516 69 228 2.0 11.0 0.00 0.00 0.00 79 1013.1
20260904075021 68 236 3.0 12.0 0.00 0.00 0.00 79 1013.1
20260904074551 68 238 5.0 12.0 0.00 0.00 0.00 79 1013.1
20260904074011 68 187 2.0 14.0 0.00 0.00 0.00 80 1013.2
20260904073552 68 222 2.0 14.0 0.00 0.00 0.00 80 1013.2
20260904073107 67 235 6.0 14.0 0.00 0.00 0.00 80 1013.5
20260904073001 67 244 5.0 14.0 0.00 0.00 0.00 80 1013.5
20260904072510 67 231 5.0 11.0 0.00 0.00 0.00 80 1013.5
20260904072017 67 245 1.0 11.0 0.00 0.00 0.00 81 1013.4
20260904071558 67 223 2.0 11.0 0.00 0.00 0.00 81 1013.3
20260904071041 67 240 2.0 9.0 0.00 0.00 0.00 81 1013.3
20260904070550 66 234 2.0 9.0 0.00 0.00 0.00 81 1013.4
20260904070107 66 225 3.0 9.0 0.00 0.00 0.00 81 1013.4
20260904065503 66 224 2.0 9.0 0.00 0.00 0.00 81 1013.5
20260904065009 66 223 1.0 14.0 0.00 0.00 0.00 81 1013.6
20260904064549 66 236 8.0 14.0 0.00 0.00 0.00 81 1013.6
20260904064100 66 241 3.0 13.0 0.00 0.00 0.00 82 1013.6
20260904064002 66 267 2.0 13.0 0.00 0.00 0.00 82 1013.6
20260904063505 66 231 5.0 11.0 0.00 0.00 0.00 82 1013.7
20260904063014 65 232 2.0 9.0 0.00 0.00 0.00 83 1013.8
20260904062523 65 222 3.0 12.0 0.00 0.00 0.00 83 1013.9
20260904062029 65 181 4.0 12.0 0.00 0.00 0.00 83 1013.9
20260904061511 65 229 3.0 11.0 0.00 0.00 0.00 83 1014.0
20260904061019 65 219 2.0 13.0 0.00 0.00 0.00 84 1014.2
20260904060526 64 185 4.0 13.0 0.00 0.00 0.00 84 1014.3
20260904060032 64 229 3.0 12.0 0.00 0.00 0.00 85 1014.3
20260904055544 64 266 1.0 10.0 0.00 0.00 0.00 85 1014.2
20260904055050 63 238 2.0 10.0 0.00 0.00 0.00 85 1014.2
20260904054558 63 251 0.0 5.0 0.00 0.00 0.00 85 1014.1
20260904054008 63 207 1.0 7.0 0.00 0.00 0.00 85 1014.1
20260904053548 63 231 1.0 7.0 0.00 0.00 0.00 85 1014.1
20260904053059 63 219 1.0 4.0 0.00 0.00 0.00 85 1014.1
20260904052601 63 119 1.0 9.0 0.00 0.00 0.00 85 1014.2
20260904052501 63 216 0.0 9.0 0.00 0.00 0.00 85 1014.2
20260904052005 63 221 1.0 9.0 0.00 0.00 0.00 85 1014.2
20260904051518 63 239 1.0 7.0 0.00 0.00 0.00 85 1014.3
20260904051020 63 226 0.0 7.0 0.00 0.00 0.00 85 1014.3
20260904050527 63 187 1.0 7.0 0.00 0.00 0.00 85 1014.5
20260904050038 63 223 1.0 10.0 0.00 0.00 0.00 85 1014.6
20260904045543 63 232 1.0 10.0 0.00 0.00 0.00 85 1014.5
20260904045027 63 242 1.0 9.0 0.00 0.00 0.00 85 1014.6
20260904044506 63 264 3.0 9.0 0.00 0.00 0.00 85 1014.5
20260904044017 63 220 2.0 9.0 0.00 0.00 0.00 85 1014.6
20260904043525 63 229 1.0 9.0 0.00 0.00 0.00 85 1014.7
20260904043027 63 261 0.0 9.0 0.00 0.00 0.00 85 1014.5
20260904042509 63 248 1.0 9.0 0.00 0.00 0.00 85 1014.5
20260904042048 63 208 0.0 5.0 0.00 0.00 0.00 85 1014.5
20260904041557 63 232 2.0 5.0 0.00 0.00 0.00 85 1014.4
20260904041003 63 240 0.0 5.0 0.00 0.00 0.00 85 1014.3
20260904040512 63 234 0.0 5.0 0.00 0.00 0.00 85 1014.5
20260904040017 63 270 0.0 5.0 0.00 0.00 0.00 85 1014.6
20260904035525 63 228 2.0 5.0 0.00 0.00 0.00 85 1014.7
20260904035035 63 215 1.0 5.0 0.00 0.00 0.00 85 1014.8